QPF
0.00 0.00 0.01 0.01 0.01 0.01 0.01 0.02 0.02 0.01 0.01 0.01 0.01 0.00 0.00 0.00 0.00 0.00 0.00 0.00 0.01 0.02 0.05 0.04 0.03 0.01 0.00 0.00 0.00 0.00 0.00 0.00 0.00 0.00 0.00 0.00 0.00 0.00 0.00 0.00 0.00 0.00 0.00
0.00 0.00 0.01 0.01 0.01 0.01 0.01 0.02 0.02 0.01 0.01 0.01 0.01 0.00 0.00 0.00 0.00 0.00 0.01 0.01 0.01 0.04 0.06 0.05 0.03 0.01 0.00 0.00 0.00 0.00 0.00 0.00 0.00 0.00 0.00 0.00 0.00 0.00 0.00 0.00 0.00 0.00 0.00
0.00 0.00 0.00 0.01 0.01 0.01 0.02 0.02 0.01 0.01 0.01 0.01 0.00 0.00 0.00 0.00 0.00 0.01 0.01 0.01 0.02 0.04 0.05 0.04 0.02 0.01 0.00 0.00 0.00 0.00 0.00 0.00 0.00 0.00 0.00 0.00 0.00 0.00 0.00 0.00 0.00 0.00 0.00
0.00 0.00 0.00 0.00 0.01 0.01 0.01 0.01 0.01 0.00 0.00 0.00 0.00 0.00 0.00 0.00 0.01 0.01 0.01 0.02 0.02 0.03 0.03 0.02 0.01 0.00 0.00 0.00 0.00 0.00 0.00 0.00 0.00 0.00 0.00 0.00 0.00 0.01 0.01 0.01 0.01 0.01 0.00
0.00 0.00 0.00 0.00 0.01 0.01 0.01 0.01 0.01 0.00 0.00 0.00 0.00 0.00 0.00 0.00 0.00 0.01 0.01 0.01 0.01 0.01 0.01 0.01 0.00 0.00 0.00 0.00 0.00 0.00 0.00 0.00 0.00 0.00 0.00 0.00 0.00 0.01 0.01 0.01 0.01 0.01 0.01
0.00 0.00 0.00 0.00 0.01 0.01 0.01 0.01 0.00 0.00 0.00 0.00 0.00 0.00 0.00 0.00 0.00 0.00 0.00 0.00 0.00 0.00 0.00 0.00 0.00 0.00 0.00 0.00 0.00 0.00 0.00 0.00 0.00 0.00 0.00 0.00 0.01 0.02 0.03 0.02 0.02 0.03 0.05
0.00 0.00 0.00 0.00 0.01 0.01 0.01 0.00 0.00 0.00 0.00 0.00 0.00 0.00 0.00 0.00 0.00 0.00 0.00 0.00 0.00 0.00 0.00 0.00 0.00 0.00 0.00 0.00 0.00 0.00 0.00 0.00 0.00 0.00 0.00 0.00 0.01 0.03 0.03 0.04 0.04 0.04 0.04
0.00 0.00 0.00 0.01 0.01 0.01 0.00 0.00 0.01 0.01 0.00 0.00 0.00 0.00 0.00 0.00 0.00 0.00 0.00 0.00 0.00 0.00 0.00 0.00 0.00 0.00 0.00 0.00 0.00 0.00 0.00 0.00 0.00 0.00 0.00 0.01 0.02 0.03 0.03 0.02 0.02 0.01 0.01
0.00 0.00 0.00 0.00 0.00 0.00 0.00 0.00 0.01 0.01 0.00 0.00 0.00 0.00 0.00 0.00 0.00 0.00 0.00 0.00 0.00 0.00 0.00 0.00 0.00 0.00 0.00 0.00 0.00 0.00 0.00 0.00 0.00 0.00 0.00 0.01 0.01 0.02 0.01 0.01 0.01 0.00 0.00
0.00 0.00 0.00 0.00 0.00 0.00 0.00 0.00 0.00 0.00 0.00 0.00 0.00 0.00 0.00 0.00 0.00 0.00 0.00 0.00 0.00 0.00 0.00 0.00 0.00 0.00 0.00 0.00 0.00 0.00 0.00 0.00 0.00 0.00 0.00 0.01 0.01 0.01 0.00 0.00 0.00 0.00 0.00
0.00 0.00 0.00 0.00 0.00 0.00 0.00 0.00 0.00 0.00 0.00 0.00 0.00 0.00 0.00 0.00 0.00 0.00 0.00 0.00 0.00 0.00 0.00 0.00 0.00 0.00 0.00 0.00 0.00 0.00 0.00 0.00 0.00 0.00 0.00 0.01 0.01 0.00 0.00 0.00 0.00 0.00 0.00
0.01 0.00 0.00 0.00 0.00 0.00 0.00 0.00 0.00 0.00 0.00 0.00 0.00 0.00 0.00 0.00 0.00 0.00 0.00 0.00 0.00 0.00 0.00 0.00 0.00 0.00 0.00 0.00 0.00 0.00 0.00 0.00 0.00 0.00 0.00 0.00 0.00 0.00 0.00 0.00 0.00 0.00 0.00
0.00 0.00 0.00 0.00 0.00 0.00 0.00 0.00 0.00 0.00 0.00 0.00 0.00 0.00 0.00 0.00 0.00 0.00 0.00 0.00 0.00 0.00 0.00 0.00 0.00 0.00 0.00 0.00 0.00 0.00 0.00 0.00 0.00 0.00 0.00 0.00 0.00 0.00 0.00 0.00 0.00 0.00 0.00
0.00 0.00 0.00 0.00 0.00 0.00 0.00 0.00 0.00 0.00 0.00 0.00 0.00 0.00 0.00 0.00 0.00 0.00 0.00 0.00 0.00 0.00 0.00 0.00 0.00 0.00 0.00 0.00 0.00 0.00 0.00 0.00 0.00 0.00 0.00 0.00 0.00 0.00 0.00 0.00 0.00 0.00 0.00
0.00 0.00 0.00 0.00 0.00 0.00 0.00 0.00 0.00 0.00 0.00 0.00 0.00 0.00 0.00 0.00 0.00 0.00 0.00 0.00 0.00 0.00 0.00 0.00 0.00 0.00 0.00 0.00 0.00 0.00 0.00 0.00 0.00 0.00 0.00 0.00 0.00 0.00 0.00 0.00 0.00 0.00 0.00
0.00 0.00 0.00 0.00 0.01 0.00 0.00 0.00 0.00 0.00 0.00 0.00 0.00 0.00 0.00 0.00 0.00 0.00 0.00 0.00 0.00 0.00 0.00 0.00 0.00 0.00 0.00 0.00 0.00 0.00 0.00 0.00 0.00 0.00 0.00 0.00 0.00 0.00 0.00 0.00 0.00 0.00 0.00
0.00 0.00 0.00 0.00 0.00 0.00 0.00 0.00 0.00 0.00 0.00 0.00 0.00 0.00 0.00 0.00 0.00 0.00 0.00 0.00 0.00 0.00 0.00 0.00 0.00 0.00 0.00 0.00 0.00 0.00 0.00 0.00 0.00 0.00 0.00 0.00 0.00 0.00 0.00 0.00 0.00 0.00 0.00
0.00 0.00 0.00 0.00 0.00 0.00 0.00 0.01 0.01 0.01 0.01 0.00 0.00 0.00 0.00 0.00 0.00 0.00 0.00 0.00 0.00 0.00 0.00 0.00 0.00 0.00 0.00 0.00 0.00 0.00 0.00 0.00 0.00 0.00 0.00 0.00 0.00 0.00 0.00 0.00 0.00 0.00 0.00
0.00 0.00 0.00 0.00 0.00 0.00 0.00 0.01 0.01 0.01 0.01 0.01 0.01 0.00 0.00 0.00 0.00 0.00 0.00 0.00 0.00 0.00 0.00 0.00 0.00 0.00 0.00 0.00 0.00 0.00 0.00 0.00 0.00 0.00 0.00 0.00 0.00 0.00 0.00 0.00 0.00 0.00 0.00
0.00 0.00 0.00 0.00 0.00 0.00 0.00 0.00 0.01 0.01 0.00 0.00 0.00 0.01 0.01 0.01 0.01 0.01 0.00 0.00 0.00 0.00 0.00 0.00 0.00 0.00 0.00 0.00 0.00 0.00 0.00 0.00 0.00 0.00 0.00 0.00 0.00 0.00 0.00 0.00 0.00 0.00 0.00
0.00 0.00 0.00 0.00 0.00 0.00 0.00 0.00 0.00 0.00 0.00 0.00 0.00 0.01 0.02 0.03 0.03 0.02 0.01 0.01 0.01 0.00 0.00 0.00 0.00 0.00 0.00 0.00 0.00 0.00 0.00 0.00 0.00 0.00 0.00 0.00 0.00 0.00 0.00 0.00 0.00 0.00 0.00
0.00 0.00 0.00 0.00 0.00 0.00 0.00 0.00 0.00 0.00 0.00 0.00 0.01 0.01 0.01 0.01 0.02 0.02 0.02 0.02 0.03 0.02 0.01 0.01 0.00 0.00 0.00 0.00 0.00 0.00 0.00 0.00 0.00 0.00 0.00 0.00 0.00 0.00 0.00 0.00 0.00 0.00 0.00
0.00 0.00 0.00 0.00 0.00 0.00 0.00 0.00 0.00 0.00 0.00 0.00 0.00 0.00 0.00 0.01 0.02 0.02 0.03 0.04 0.05 0.04 0.03 0.03 0.02 0.01 0.01 0.01 0.01 0.00 0.00 0.00 0.00 0.00 0.00 0.00 0.00 0.00 0.00 0.00 0.00 0.00 0.00
0.00 0.00 0.00 0.00 0.00 0.00 0.00 0.00 0.00 0.00 0.00 0.00 0.00 0.00 0.01 0.01 0.02 0.03 0.05 0.06 0.07 0.07 0.05 0.06 0.07 0.07 0.05 0.03 0.03 0.02 0.01 0.00 0.00 0.00 0.00 0.00 0.00 0.00 0.00 0.00 0.00 0.00 0.00
0.00 0.00 0.00 0.00 0.00 0.00 0.00 0.00 0.00 0.00 0.00 0.00 0.00 0.00 0.00 0.01 0.01 0.03 0.05 0.06 0.06 0.07 0.08 0.10 0.10 0.11 0.09 0.08 0.06 0.05 0.03 0.01 0.01 0.01 0.00 0.00 0.00 0.00 0.00 0.00 0.00 0.00 0.00
0.00 0.00 0.00 0.00 0.00 0.00 0.00 0.00 0.00 0.00 0.00 0.00 0.00 0.00 0.00 0.00 0.01 0.02 0.04 0.05 0.06 0.07 0.09 0.11 0.13 0.14 0.14 0.12 0.09 0.07 0.06 0.04 0.03 0.03 0.03 0.02 0.02 0.02 0.01 0.01 0.01 0.01 0.01
MSLP
1013.33 1013.47 1013.75 1014.14 1014.58 1015.02 1015.42 1015.75 1016.00 1016.19 1016.34 1016.49 1016.64 1016.82 1017.03 1017.24 1017.44 1017.62 1017.76 1017.86 1017.93 1018.00 1018.08 1018.17 1018.29 1018.42 1018.56 1018.70 1018.81 1018.89 1018.95 1018.98 1019.00 1019.02 1019.04 1019.07 1019.11 1019.14 1019.18 1019.20 1019.20 1019.20 1019.18
1013.27 1013.44 1013.75 1014.16 1014.64 1015.11 1015.55 1015.91 1016.19 1016.40 1016.56 1016.69 1016.84 1017.00 1017.19 1017.38 1017.57 1017.75 1017.89 1018.01 1018.11 1018.22 1018.34 1018.48 1018.64 1018.81 1018.98 1019.11 1019.21 1019.26 1019.28 1019.26 1019.24 1019.22 1019.22 1019.24 1019.29 1019.34 1019.40 1019.44 1019.45 1019.45 1019.44
1013.17 1013.37 1013.70 1014.14 1014.64 1015.15 1015.62 1016.02 1016.35 1016.59 1016.78 1016.94 1017.09 1017.24 1017.42 1017.59 1017.76 1017.91 1018.05 1018.16 1018.28 1018.40 1018.55 1018.73 1018.93 1019.13 1019.31 1019.44 1019.52 1019.55 1019.52 1019.47 1019.40 1019.36 1019.34 1019.36 1019.42 1019.49 1019.56 1019.63 1019.67 1019.68 1019.67
1013.08 1013.31 1013.66 1014.12 1014.63 1015.16 1015.67 1016.11 1016.48 1016.77 1017.00 1017.19 1017.37 1017.54 1017.70 1017.86 1018.01 1018.14 1018.25 1018.35 1018.46 1018.59 1018.75 1018.94 1019.16 1019.38 1019.57 1019.70 1019.77 1019.77 1019.72 1019.63 1019.54 1019.47 1019.44 1019.46 1019.52 1019.61 1019.71 1019.80 1019.86 1019.90 1019.91
1013.05 1013.31 1013.68 1014.14 1014.66 1015.20 1015.72 1016.19 1016.59 1016.93 1017.20 1017.44 1017.65 1017.84 1018.02 1018.18 1018.32 1018.42 1018.51 1018.59 1018.68 1018.80 1018.96 1019.16 1019.38 1019.60 1019.79 1019.93 1019.99 1019.97 1019.90 1019.80 1019.69 1019.60 1019.57 1019.59 1019.65 1019.75 1019.87 1019.98 1020.07 1020.13 1020.17
1013.14 1013.43 1013.80 1014.25 1014.76 1015.29 1015.80 1016.28 1016.70 1017.06 1017.37 1017.65 1017.90 1018.12 1018.33 1018.51 1018.65 1018.75 1018.83 1018.89 1018.96 1019.07 1019.22 1019.40 1019.62 1019.83 1020.02 1020.15 1020.20 1020.18 1020.11 1019.99 1019.88 1019.80 1019.76 1019.78 1019.85 1019.96 1020.08 1020.21 1020.32 1020.40 1020.46
1013.37 1013.67 1014.04 1014.47 1014.95 1015.45 1015.93 1016.39 1016.80 1017.16 1017.50 1017.80 1018.09 1018.36 1018.60 1018.80 1018.96 1019.08 1019.16 1019.23 1019.29 1019.39 1019.52 1019.69 1019.89 1020.09 1020.26 1020.38 1020.43 1020.41 1020.33 1020.23 1020.12 1020.05 1020.02 1020.05 1020.13 1020.24 1020.37 1020.50 1020.62 1020.72 1020.79
1013.73 1014.03 1014.38 1014.78 1015.22 1015.67 1016.10 1016.51 1016.89 1017.24 1017.58 1017.89 1018.20 1018.51 1018.79 1019.03 1019.23 1019.38 1019.49 1019.56 1019.64 1019.72 1019.84 1020.00 1020.17 1020.35 1020.51 1020.61 1020.65 1020.64 1020.57 1020.48 1020.39 1020.34 1020.33 1020.38 1020.47 1020.60 1020.73 1020.86 1020.98 1021.08 1021.16
1014.17 1014.44 1014.77 1015.13 1015.52 1015.91 1016.29 1016.65 1016.98 1017.30 1017.61 1017.92 1018.24 1018.57 1018.88 1019.17 1019.41 1019.60 1019.74 1019.85 1019.94 1020.03 1020.14 1020.28 1020.44 1020.59 1020.72 1020.80 1020.84 1020.82 1020.76 1020.69 1020.64 1020.62 1020.65 1020.73 1020.85 1020.99 1021.14 1021.27 1021.39 1021.48 1021.55
1014.60 1014.84 1015.13 1015.46 1015.80 1016.13 1016.46 1016.76 1017.04 1017.32 1017.60 1017.90 1018.21 1018.55 1018.88 1019.20 1019.48 1019.71 1019.89 1020.03 1020.14 1020.25 1020.36 1020.49 1020.62 1020.75 1020.86 1020.92 1020.94 1020.92 1020.88 1020.84 1020.82 1020.84 1020.92 1021.05 1021.21 1021.38 1021.55 1021.70 1021.81 1021.89 1021.95
1014.94 1015.15 1015.40 1015.68 1015.98 1016.28 1016.56 1016.82 1017.07 1017.31 1017.56 1017.83 1018.13 1018.46 1018.80 1019.12 1019.43 1019.69 1019.90 1020.06 1020.20 1020.33 1020.45 1020.58 1020.70 1020.81 1020.89 1020.94 1020.95 1020.92 1020.89 1020.88 1020.90 1020.97 1021.11 1021.29 1021.51 1021.73 1021.94 1022.10 1022.22 1022.30 1022.35
1015.13 1015.30 1015.52 1015.77 1016.04 1016.31 1016.57 1016.81 1017.03 1017.25 1017.48 1017.73 1018.01 1018.32 1018.64 1018.96 1019.27 1019.54 1019.76 1019.95 1020.11 1020.26 1020.39 1020.52 1020.65 1020.75 1020.82 1020.86 1020.86 1020.84 1020.83 1020.83 1020.89 1021.02 1021.21 1021.45 1021.73 1022.01 1022.26 1022.46 1022.60 1022.68 1022.72
1015.14 1015.27 1015.45 1015.68 1015.94 1016.20 1016.46 1016.70 1016.93 1017.14 1017.36 1017.59 1017.85 1018.13 1018.43 1018.73 1019.02 1019.28 1019.51 1019.71 1019.88 1020.05 1020.20 1020.35 1020.49 1020.60 1020.68 1020.72 1020.73 1020.72 1020.72 1020.75 1020.84 1021.01 1021.24 1021.55 1021.88 1022.21 1022.51 1022.75 1022.92 1023.02 1023.06
1014.97 1015.06 1015.22 1015.43 1015.68 1015.96 1016.23 1016.49 1016.74 1016.96 1017.19 1017.41 1017.65 1017.91 1018.17 1018.44 1018.70 1018.94 1019.16 1019.36 1019.55 1019.74 1019.92 1020.10 1020.27 1020.41 1020.52 1020.59 1020.62 1020.64 1020.65 1020.70 1020.81 1021.00 1021.27 1021.61 1021.98 1022.35 1022.70 1022.98 1023.18 1023.30 1023.35
1014.67 1014.72 1014.86 1015.06 1015.31 1015.60 1015.90 1016.19 1016.46 1016.71 1016.95 1017.18 1017.41 1017.64 1017.88 1018.11 1018.33 1018.55 1018.76 1018.96 1019.16 1019.37 1019.59 1019.82 1020.04 1020.23 1020.39 1020.51 1020.58 1020.63 1020.67 1020.74 1020.86 1021.06 1021.33 1021.67 1022.06 1022.45 1022.82 1023.13 1023.36 1023.51 1023.59
1014.28 1014.31 1014.43 1014.62 1014.87 1015.16 1015.48 1015.80 1016.09 1016.37 1016.62 1016.86 1017.09 1017.31 1017.52 1017.73 1017.93 1018.13 1018.33 1018.53 1018.75 1018.99 1019.26 1019.54 1019.82 1020.09 1020.32 1020.50 1020.63 1020.72 1020.80 1020.88 1021.00 1021.19 1021.45 1021.77 1022.14 1022.52 1022.89 1023.21 1023.47 1023.65 1023.76
1013.87 1013.89 1013.98 1014.16 1014.40 1014.70 1015.02 1015.34 1015.65 1015.95 1016.21 1016.46 1016.68 1016.90 1017.10 1017.30 1017.49 1017.68 1017.88 1018.10 1018.34 1018.62 1018.94 1019.28 1019.63 1019.97 1020.28 1020.54 1020.74 1020.89 1021.00 1021.10 1021.22 1021.38 1021.60 1021.88 1022.21 1022.57 1022.92 1023.24 1023.50 1023.71 1023.85
1013.50 1013.51 1013.58 1013.74 1013.96 1014.23 1014.54 1014.85 1015.16 1015.45 1015.71 1015.96 1016.18 1016.40 1016.60 1016.80 1017.00 1017.20 1017.42 1017.66 1017.93 1018.25 1018.61 1019.00 1019.42 1019.84 1020.22 1020.56 1020.83 1021.03 1021.19 1021.31 1021.42 1021.56 1021.74 1021.97 1022.25 1022.56 1022.88 1023.19 1023.46 1023.69 1023.87
1013.21 1013.19 1013.24 1013.37 1013.56 1013.80 1014.07 1014.35 1014.63 1014.89 1015.14 1015.37 1015.59 1015.81 1016.02 1016.24 1016.45 1016.68 1016.92 1017.19 1017.49 1017.84 1018.23 1018.67 1019.13 1019.60 1020.05 1020.45 1020.79 1021.05 1021.24 1021.39 1021.51 1021.64 1021.79 1021.97 1022.21 1022.48 1022.77 1023.07 1023.35 1023.60 1023.82
1013.00 1012.96 1012.98 1013.07 1013.21 1013.40 1013.62 1013.85 1014.08 1014.30 1014.52 1014.72 1014.93 1015.15 1015.37 1015.60 1015.84 1016.10 1016.37 1016.66 1016.99 1017.36 1017.77 1018.23 1018.71 1019.21 1019.69 1020.14 1020.52 1020.83 1021.07 1021.25 1021.39 1021.52 1021.67 1021.84 1022.05 1022.30 1022.59 1022.89 1023.19 1023.47 1023.72
1012.87 1012.80 1012.78 1012.83 1012.92 1013.05 1013.21 1013.38 1013.55 1013.71 1013.87 1014.04 1014.22 1014.43 1014.65 1014.90 1015.17 1015.45 1015.75 1016.06 1016.40 1016.78 1017.19 1017.64 1018.12 1018.61 1019.10 1019.56 1019.98 1020.33 1020.61 1020.83 1021.01 1021.17 1021.34 1021.53 1021.76 1022.04 1022.34 1022.67 1023.00 1023.32 1023.61
1012.81 1012.70 1012.64 1012.63 1012.67 1012.75 1012.84 1012.94 1013.04 1013.14 1013.24 1013.36 1013.50 1013.68 1013.90 1014.15 1014.44 1014.74 1015.05 1015.38 1015.72 1016.09 1016.48 1016.90 1017.35 1017.81 1018.29 1018.74 1019.17 1019.54 1019.86 1020.14 1020.38 1020.60 1020.82 1021.08 1021.36 1021.69 1022.05 1022.43 1022.82 1023.18 1023.51
1012.81 1012.64 1012.52 1012.47 1012.46 1012.48 1012.51 1012.55 1012.58 1012.61 1012.64 1012.70 1012.80 1012.94 1013.14 1013.39 1013.67 1013.98 1014.30 1014.63 1014.96 1015.31 1015.67 1016.05 1016.45 1016.88 1017.31 1017.75 1018.17 1018.56 1018.92 1019.25 1019.55 1019.86 1020.17 1020.52 1020.90 1021.32 1021.76 1022.22 1022.67 1023.09 1023.46
1012.85 1012.62 1012.45 1012.35 1012.28 1012.25 1012.23 1012.20 1012.17 1012.13 1012.10 1012.10 1012.14 1012.24 1012.40 1012.63 1012.90 1013.20 1013.52 1013.84 1014.16 1014.49 1014.81 1015.15 1015.51 1015.89 1016.29 1016.70 1017.11 1017.52 1017.91 1018.29 1018.68 1019.07 1019.49 1019.94 1020.44 1020.96 1021.51 1022.06 1022.58 1023.06 1023.46
1012.94 1012.65 1012.43 1012.27 1012.16 1012.07 1012.00 1011.92 1011.83 1011.73 1011.64 1011.57 1011.55 1011.60 1011.72 1011.91 1012.15 1012.44 1012.75 1013.06 1013.37 1013.68 1013.99 1014.30 1014.63 1014.98 1015.35 1015.75 1016.15 1016.57 1016.99 1017.43 1017.88 1018.36 1018.88 1019.45 1020.05 1020.69 1021.34 1021.97 1022.56 1023.08 1023.51
1013.08 1012.75 1012.47 1012.26 1012.10 1011.97 1011.85 1011.72 1011.57 1011.42 1011.26 1011.13 1011.06 1011.05 1011.11 1011.26 1011.47 1011.73 1012.03 1012.33 1012.64 1012.95 1013.25 1013.56 1013.88 1014.23 1014.60 1014.99 1015.41 1015.85 1016.30 1016.79 1017.30 1017.85 1018.46 1019.11 1019.80 1020.53 1021.25 1021.96 1022.60 1023.15 1023.59
Thickness
5772 5771 5764 5761 5759 5757 5755 5753 5751 5749 5747 5745 5742 5741 5739 5737 5736 5735 5734 5733 5731 5730 5729 5728 5726 5725 5724 5722 5721 5720 5719 5718 5716 5715 5715 5714 5713 5712 5711 5710 5710 5710 5707
5773 5769 5761 5759 5756 5754 5752 5750 5748 5746 5743 5741 5739 5737 5735 5734 5733 5732 5731 5729 5728 5727 5725 5723 5722 5720 5719 5717 5716 5715 5714 5713 5711 5710 5710 5709 5708 5707 5706 5705 5705 5705 5703
5770 5766 5759 5756 5753 5751 5749 5747 5745 5742 5740 5737 5735 5733 5732 5730 5729 5728 5727 5725 5724 5722 5720 5718 5717 5715 5714 5712 5711 5710 5709 5708 5707 5706 5707 5708 5705 5702 5701 5700 5700 5699 5698
5766 5762 5758 5753 5750 5748 5746 5744 5741 5738 5736 5734 5732 5730 5728 5726 5725 5724 5723 5721 5719 5717 5715 5713 5711 5710 5708 5707 5706 5705 5704 5702 5701 5702 5704 5703 5702 5698 5697 5696 5695 5694 5693
5761 5758 5754 5749 5747 5745 5742 5740 5737 5735 5732 5730 5727 5725 5724 5722 5721 5719 5718 5716 5714 5712 5710 5708 5706 5704 5703 5702 5700 5699 5698 5697 5697 5698 5698 5697 5696 5693 5692 5691 5690 5689 5688
5756 5754 5749 5745 5742 5740 5738 5736 5733 5731 5728 5725 5723 5721 5719 5717 5716 5714 5712 5710 5708 5706 5705 5703 5701 5699 5698 5696 5695 5694 5693 5692 5693 5694 5692 5692 5691 5688 5687 5686 5684 5683 5682
5752 5749 5744 5740 5738 5735 5733 5731 5729 5727 5724 5721 5718 5716 5714 5712 5710 5708 5706 5705 5703 5701 5699 5697 5696 5694 5693 5691 5690 5689 5687 5687 5689 5688 5687 5686 5683 5682 5681 5680 5678 5677 5676
5746 5743 5739 5735 5733 5730 5728 5726 5724 5722 5719 5716 5714 5711 5709 5707 5705 5703 5701 5699 5697 5696 5694 5692 5691 5689 5688 5686 5685 5683 5682 5682 5682 5682 5681 5679 5676 5675 5674 5672 5671 5670 5668
5741 5738 5735 5731 5728 5725 5723 5721 5719 5717 5714 5711 5709 5706 5704 5702 5700 5697 5695 5694 5692 5690 5689 5687 5685 5684 5682 5681 5679 5678 5677 5676 5679 5677 5675 5673 5669 5668 5666 5665 5663 5662 5661
5734 5733 5731 5728 5726 5723 5720 5717 5714 5712 5709 5707 5704 5701 5699 5697 5694 5692 5691 5689 5687 5685 5683 5682 5680 5679 5677 5675 5674 5673 5672 5671 5673 5671 5669 5666 5663 5661 5659 5657 5656 5654 5653
5725 5727 5726 5725 5722 5720 5717 5713 5710 5707 5705 5702 5699 5696 5694 5694 5692 5688 5687 5684 5682 5680 5679 5677 5675 5674 5672 5670 5669 5668 5667 5669 5668 5666 5663 5658 5656 5654 5652 5650 5648 5646 5645
5717 5720 5721 5720 5718 5715 5712 5709 5708 5705 5702 5699 5697 5694 5692 5692 5690 5687 5682 5680 5678 5676 5674 5673 5671 5669 5668 5668 5665 5663 5664 5663 5663 5660 5656 5653 5650 5648 5645 5643 5640 5639 5637
5714 5714 5714 5714 5712 5711 5708 5706 5705 5702 5700 5697 5695 5692 5690 5688 5686 5683 5680 5677 5675 5673 5672 5669 5667 5668 5666 5664 5663 5662 5660 5659 5658 5655 5651 5647 5644 5642 5639 5636 5634 5632 5630
5709 5709 5709 5708 5707 5705 5704 5703 5701 5700 5697 5695 5692 5690 5688 5686 5684 5682 5679 5677 5674 5672 5670 5668 5667 5665 5662 5660 5659 5657 5655 5654 5652 5650 5646 5642 5639 5636 5632 5629 5627 5624 5622
5705 5705 5705 5704 5702 5700 5699 5699 5698 5697 5695 5692 5690 5688 5686 5684 5682 5679 5677 5674 5672 5670 5667 5665 5664 5662 5659 5657 5654 5653 5651 5649 5646 5644 5640 5636 5633 5630 5626 5623 5620 5618 5615
5703 5703 5703 5701 5700 5698 5697 5695 5695 5694 5692 5690 5688 5686 5683 5681 5679 5677 5675 5672 5670 5667 5665 5662 5660 5658 5655 5652 5650 5648 5646 5644 5641 5638 5636 5630 5626 5623 5620 5617 5614 5611 5608
5701 5702 5702 5700 5699 5697 5695 5693 5692 5691 5690 5688 5686 5684 5681 5679 5677 5674 5673 5670 5667 5664 5662 5659 5657 5653 5651 5647 5645 5643 5640 5638 5635 5632 5629 5626 5621 5616 5613 5610 5607 5604 5601
5699 5699 5700 5699 5698 5696 5694 5691 5689 5688 5687 5686 5684 5682 5680 5677 5674 5671 5670 5668 5665 5661 5658 5656 5653 5649 5646 5643 5641 5637 5634 5631 5629 5627 5623 5619 5616 5611 5607 5603 5600 5597 5594
5695 5696 5696 5697 5696 5695 5692 5689 5686 5685 5684 5683 5682 5680 5678 5675 5672 5669 5667 5665 5661 5658 5655 5652 5649 5646 5642 5639 5636 5632 5629 5626 5623 5619 5617 5614 5610 5606 5602 5597 5593 5590 5587
5690 5692 5693 5693 5693 5693 5690 5687 5683 5681 5680 5679 5678 5677 5675 5672 5669 5666 5664 5662 5658 5655 5652 5649 5644 5641 5638 5634 5629 5625 5622 5620 5617 5614 5612 5608 5603 5599 5596 5592 5587 5583 5580
5683 5685 5687 5687 5688 5687 5686 5683 5680 5678 5677 5676 5675 5673 5671 5669 5666 5663 5661 5658 5655 5652 5650 5646 5641 5636 5631 5626 5621 5617 5614 5612 5611 5608 5605 5602 5598 5594 5589 5585 5582 5578 5573
5675 5678 5679 5680 5681 5681 5681 5681 5679 5678 5676 5675 5672 5669 5667 5665 5662 5660 5657 5655 5652 5648 5645 5642 5637 5632 5627 5621 5619 5614 5611 5609 5606 5603 5600 5596 5594 5588 5584 5579 5575 5571 5567
5664 5666 5668 5670 5671 5672 5673 5673 5672 5671 5670 5668 5667 5666 5665 5661 5658 5655 5652 5650 5647 5644 5641 5638 5633 5629 5624 5617 5617 5614 5612 5614 5610 5599 5595 5591 5587 5583 5578 5573 5568 5563 5558
5652 5654 5657 5660 5662 5663 5663 5663 5664 5663 5663 5665 5664 5663 5660 5656 5653 5650 5647 5643 5641 5638 5636 5634 5629 5626 5621 5614 5609 5608 5610 5613 5605 5597 5587 5582 5578 5575 5571 5565 5560 5555 5549
5642 5644 5647 5650 5652 5653 5654 5654 5654 5656 5657 5658 5657 5656 5654 5651 5648 5644 5640 5637 5634 5632 5630 5628 5623 5620 5617 5613 5606 5600 5595 5592 5594 5594 5586 5575 5567 5563 5559 5555 5550 5546 5540
5632 5634 5636 5639 5641 5642 5643 5644 5645 5645 5646 5646 5646 5645 5644 5643 5641 5637 5633 5630 5627 5625 5623 5620 5617 5613 5610 5607 5601 5596 5593 5588 5586 5582 5579 5568 5559 5551 5545 5541 5538 5534 5528